Overview Statistics Trail Chart Weather Telemetry Raw packets
 

This is the latest recevied weather packets stored in our database for station/object 4S6DRJ-13. If no packets are shown the sender has not sent any weather packets the latest 10 day(s).

<< 424 425 426 427 428 429 430 >>
Time Temp. Humidity Pressure Rain* Wind** Luminosity Snow
1787815406 30.56° C 72% 1009.2 hPa 0 mm 2.24 m/s, 239° 631 W/m² -
1787815345 30.56° C 74% 1009.3 hPa 0 mm 1.34 m/s, 227° 747 W/m² -
1787815289 30.56° C 73% 1009.3 hPa 0 mm 0.45 m/s, 125° 850 W/m² -
1787815224 30.56° C 73% 1009.4 hPa 0 mm 1.79 m/s, 169° 651 W/m² -
1787815162 30.56° C 72% 1009.5 hPa 0 mm 1.34 m/s, 207° 685 W/m² -
1787815101 30.56° C 73% 1009.4 hPa 0 mm 1.34 m/s, 249° 623 W/m² -
1787815040 30.56° C 73% 1009.4 hPa 0 mm 0.89 m/s, 256° 712 W/m² -
1787814979 30.56° C 73% 1009.4 hPa 0 mm 2.68 m/s, 206° 512 W/m² -
1787814918 30.56° C 74% 1009.3 hPa 0 mm 1.79 m/s, 220° 589 W/m² -
1787814856 30.56° C 74% 1009.3 hPa 0 mm 0.89 m/s, 177° 436 W/m² -
1787814796 30.56° C 74% 1009.4 hPa 0 mm 0.89 m/s, 217° 505 W/m² -
1787814735 30.56° C 74% 1009.6 hPa 0 mm 0.45 m/s, 108° 721 W/m² -
1787814674 30° C 74% 1009.5 hPa 0 mm 0.89 m/s, 253° 701 W/m² -
1787814613 30° C 74% 1009.3 hPa 0 mm 0.45 m/s, 312° 765 W/m² -
1787814552 30° C 74% 1009.6 hPa 0 mm 1.79 m/s, 302° 832 W/m² -
1787814491 30° C 74% 1009.6 hPa 0 mm 1.79 m/s, 162° 782 W/m² -
1787814430 30° C 76% 1009.3 hPa 0 mm 0.89 m/s, 337° 778 W/m² -
1787814370 30° C 76% 1009.7 hPa 0 mm 1.34 m/s, 318° 744 W/m² -
1787814308 30° C 76% 1009.5 hPa 0 mm 1.79 m/s, 235° 493 W/m² -
1787814248 30° C 76% 1009.7 hPa 0 mm 0.89 m/s, 322° 491 W/m² -
1787814186 30° C 75% 1009.6 hPa 0 mm 1.34 m/s, 179° 590 W/m² -
1787814124 30° C 76% 1009.5 hPa 0 mm 0.89 m/s, 321° 562 W/m² -
1787814063 30° C 76% 1009.4 hPa 0 mm 0.45 m/s, 205° 597 W/m² -
1787814009 30° C 76% 1009.6 hPa 0 mm 0.45 m/s, 216° 617 W/m² -
1787813942 30° C 76% 1009.5 hPa 0 mm 1.34 m/s, 217° 682 W/m² -

* Rain latest hour (hover to see other rain measurements)
** Current wind speed in m/s (hover to see current wind gust speed)